Content
SEND FEEDBACK

Daily
Averages
Monthly
Summary
United States of America

GARDIELD, MONTANA


Home > North America > United States > Montana
Elevation: 2420 feet     Latitude: 47 29N     Longitude: 106 27W

WEATHER
 
SELECT A DAY
Number of Records: 167,777;   Date Range: 1/1/95 - 10/23/14
 
SHARE

PRINT THIS DATA

[ ← Previous Day ]
WEATHER ALMANAC - FEBRUARY 13, 2013
[ Next Day → ]
[ °C ]   °F
Weather ElementAverageHighLow
Temperature38.5 °F45 °F (12:48 pm)30 °F (11:48 pm)
Dewpoint23.6 °F28.9 °F (8:48 am)16 °F (6:48 pm)
Humidity55.4 %70 % (1:48 am)46 % (6:48 pm)
Barometer29.88 in30.09 in (11:48 pm)29.74 in (2:48 am)
Wind Speed21.1 mph27.6 mph (11:48 am)
Wind Gust42.6 mph (1:48 pm)
Weather ElementAverage
Wind DirectionWNW (300.9 °)

Weather ElementTotal
Precipitation---
Heating Degree Days27.5 (Base 65)
Averaged from 23 records on February 13, 2013
WEATHER CONDITIONS BREAKOUT
WIND DIRECTION BREAKOUT
WEATHER BY HOUR - FEBRUARY 13, 2013
[ °C ]   °F
Local TimeTemperatureDewpointHumidityBarometerVisibilityWind DirectionWind SpeedGust SpeedPrecipitationEventsConditions
1:48 AM35.1 °F26.1 °F70 %29.76 inWest (260°)10.4 mph
2:48 AM37.9 °F26.1 °F62 %29.74 inWSW (250°)13.8 mph23.0 mph
3:48 AM37.9 °F26.1 °F62 %29.74 inWest (270°)8.1 mph
4:48 AM41.0 °F27.0 °F57 %29.74 inWNW (290°)21.9 mph31.1 mph
5:48 AM41.0 °F27.0 °F57 %29.75 inWNW (290°)18.4 mph25.3 mph
6:48 AM42.1 °F26.1 °F53 %29.77 inNW (310°)23.0 mph29.9 mph
7:48 AM41.0 °F26.1 °F55 %29.79 inWNW (300°)17.3 mph27.6 mph
8:48 AM39.9 °F28.9 °F65 %29.81 inWNW (300°)23.0 mph28.8 mph
9:48 AM44.1 °F28.0 °F53 %29.81 inWNW (300°)23.0 mph32.2 mph
10:48 AM42.1 °F28.0 °F58 %29.83 inWNW (300°)21.9 mph34.5 mph
11:48 AM44.1 °F27.0 °F51 %29.85 inNW (310°)27.6 mph36.8 mph
12:48 PM45.0 °F26.1 °F48 %29.85 inWNW (300°)27.6 mph36.8 mph
1:48 PM44.1 °F25.0 °F47 %29.86 inNW (320°)27.6 mph42.6 mph
2:48 PM41.0 °F24.1 °F51 %29.89 inNW (310°)24.2 mph36.8 mph
3:48 PM39.9 °F25.0 °F55 %29.93 inNW (320°)19.6 mph29.9 mph
4:48 PM37.9 °F21.0 °F51 %29.95 inNNW (330°)20.7 mph27.6 mph
5:48 PM36.0 °F23.0 °F59 %29.98 inNNW (330°)18.4 mph26.5 mph
6:48 PM35.1 °F16.0 °F46 %30.02 inNW (320°)21.9 mph34.5 mph
7:48 PM34.0 °F16.0 °F48 %30.03 inWNW (300°)20.7 mph29.9 mph
8:48 PM33.1 °F18.0 °F54 %30.04 inWNW (290°)17.3 mph24.2 mph
9:48 PM33.1 °F17.1 °F52 %30.02 inNW (310°)27.6 mph34.5 mph
10:48 PM30.9 °F17.1 °F57 %30.07 inNW (310°)25.3 mph31.1 mph
11:48 PM30.0 °F19.0 °F64 %30.09 inWNW (300°)25.3 mph32.2 mph
Hourly data recorded from KJDN, located miles away from Gardield, Montana







STORIES FROM OUR PARTNERS